User: anonymous   Login
Location: Unspecified
(0.0000°N, 0.0000°E)
Time: 01:40:34
(UTC+00:00)
Language:

Injun/Solrad 3 - Orbit

View from above orbital plane
View from above orbital plane
View from above satellite
View from above satellite

Ground track
Ground track

The orbit data is extracted from the following two-line orbital elements,

1   117U 61015B   19022.53758023 -.00000053  00000-0  18417-4 0  9993
2   117  66.8130 111.3266 0075098  23.0348 337.4068 13.89834766918895
Epoch (UTC): 22 January 2019 12:54:06
Eccentricity: 0.0075098
inclination: 66.8130°
perigee height: 874 km
apogee height: 984 km
right ascension of ascending node: 111.3266°
argument of perigee: 23.0348°
revolutions per day: 13.89834766
mean anomaly at epoch: 337.4068°
orbit number at epoch: 91889

The dashed part of the orbit path shows where the satellite is in the earth's shadow,  

DLR